Погода в Ягодной

Россия / Курганская область     56°05′35″N   65°05′06″E
темп.,
°C
ветер,
м/с
пор.,
м/с
влажн.,
%
обл.,
%
осадки,
мм/ч
давл.,
гПа
погр.,
м
24 января, пн
пн2423:00−20юз229653 0.0 104019
02:00−20юз2295100 0.0 103917
05:00−20ююз2296100 0.0 103926
08:00−19юз3499100 0.0 103949
11:00−13ююз3692100 0.0 1039119
14:00−10ююз3687100 0.0 1037194
17:00−12ююз3790100 0.0 1036134
20:00−12юз4988100 0.0 1035183
25 января, вт
вт2523:00−11зюз4988100 0.0 1033213
02:00−11зюз369557 0.0 1032120
05:00−13з4997100 0.0 1031144
08:00−12зюз41094100 0.0 1030204
11:00−10зюз51290100 0.0 1028309
14:00−7зюз71486100 0.0 1026507
17:00−7з61387100 0.0 1025483
20:00−7з61289100 0.0 1025393
26 января, ср
ср2623:00−9з5109170 0.0 1026241
02:00−13з499380 0.0 1027124
05:00−14з3793100 0.0 1027106
08:00−17з369568 0.0 102860
11:00−14з3589100 0.0 1028101
14:00−11зюз25867 0.0 1028138
17:00−15ююз229376 0.0 102911
20:00−15ю3693100 0.0 102957
27 января, чт
чт2723:00−16ю4989100 0.0 1028123
02:00−16ю4991100 0.0 1027134
05:00−15ю41088100 0.0 1027171
08:00−16ю51181100 0.0 1026180
11:00−11ю5119153 0.0 1025247
14:00−8ююз51192100 0.0 1024347
17:00−9ююз3695100 0.0 102591
20:00−11ююз3797100 0.0 1025105
28 января, пт
пт2823:00−11ююз3697100 0.0 102585
02:00−9ю3596100 0.0 1024100
05:00−9ю3696100 0.1 1024114
08:00−12ю3792100 0.0 1024108
11:00−10ююв3888100 0.0 1023183
14:00−8ююв3785100 0.0 1022221
17:00−10юв3589100 0.0 102275
20:00−11юв3689100 0.0 102195